"startDT [UTC]","vpos","CH4 [ppm]","stdev(CH4) [ppm]","CO2 [ppm]","stdev(CO2) [ppm]","H2O [ppm]","stdev(H2O)","p_LGR [torr]","T_LGR [C]","mt1_LGR [us]","mt2_LGR [us]","T_ECpre [C]","T_EC1 [C]","T_EC2 [C]","p_inlet [hPa]","p_in [hPa]","p_out [hPa]","T_inlet [C]","RH_inlet [%]","dwpt_inlet [C]","T_vent [C]","RH_vent [%]","dwpt_vent [C]","flow_vent [l min-1]","flow_inlet [l min-1]","dwpt_sample [C]","T_room [C]"
2013-02-06 00:00:00,0.0,1.9213,0.0010,404.19,0.35,-1.0,0.0,138.09,29.20,24.64,36.42,0.04,-272.75,-272.75,-52,552,-949,22.4,0.5,-43.7,22.6,0.5,-42.5,5.73,2.44,-37.0,28.1
2013-02-06 00:01:00,0.0,1.9212,0.0009,404.09,0.32,-1.0,0.0,138.09,29.20,24.65,36.42,0.04,-272.75,-272.76,-52,552,-949,22.4,0.4,-44.3,22.6,0.5,-43.1,5.73,2.45,-37.0,28.1
2013-02-06 00:02:00,0.0,1.9213,0.0010,404.05,0.29,-1.0,0.0,138.09,29.20,24.65,36.42,0.04,-272.75,-272.75,-52,552,-949,22.4,0.4,-44.7,22.6,0.5,-43.6,5.73,2.45,-37.0,28.1
2013-02-06 00:03:00,0.0,1.9213,0.0012,404.14,0.34,-1.0,0.0,138.09,29.21,24.65,36.41,0.04,-272.75,-272.75,-52,552,-949,22.4,0.4,-45.2,22.6,0.4,-44.0,5.73,2.42,-37.0,28.1
2013-02-06 00:04:00,0.0,1.9215,0.0009,404.17,0.35,-1.0,0.0,138.09,29.21,24.65,36.42,0.04,-272.75,-272.75,-52,552,-949,22.4,0.4,-45.9,22.6,0.4,-44.1,5.73,2.39,-37.0,28.1
2013-02-06 00:05:00,0.0,1.9214,0.0012,404.27,0.32,-1.0,0.0,138.09,29.21,24.65,36.41,0.04,-272.75,-272.75,-52,552,-949,22.4,0.4,-45.9,22.6,0.4,-44.6,5.73,2.38,-37.0,28.1
2013-02-06 00:06:00,0.0,1.9224,0.0012,404.38,0.37,-1.0,0.0,138.09,29.21,24.65,36.41,0.04,-272.75,-272.75,-52,552,-949,22.4,0.3,-46.3,22.6,0.4,-44.6,5.73,2.39,-37.0,28.1
2013-02-06 00:07:00,0.0,1.9219,0.0009,404.28,0.28,-1.0,0.0,138.09,29.21,24.65,36.42,0.04,-272.75,-272.75,-52,552,-949,22.4,0.3,-46.6,22.6,0.4,-44.8,5.73,2.41,-37.0,28.1
2013-02-06 00:08:00,0.0,1.9217,0.0011,404.25,0.36,-1.0,0.0,138.09,29.21,24.65,36.42,0.04,-272.75,-272.75,-52,552,-949,22.4,0.3,-46.4,22.6,0.4,-44.7,5.73,2.43,-36.9,28.2
2013-02-06 00:09:00,0.0,1.9218,0.0009,404.45,0.31,-1.0,0.0,138.09,29.21,24.65,36.41,0.04,-272.75,-272.75,-52,552,-949,22.4,0.4,-45.9,22.6,0.4,-44.7,5.73,2.45,-36.9,28.2
2013-02-06 00:10:00,0.0,1.9212,0.0010,404.28,0.31,-1.0,0.0,138.09,29.21,24.65,36.42,0.04,-272.75,-272.75,-52,552,-949,22.5,0.4,-45.4,22.6,0.4,-44.1,5.73,2.45,-36.9,28.1
2013-02-06 00:11:00,0.0,1.9214,0.0012,404.24,0.28,-1.0,0.0,138.09,29.21,24.65,36.41,0.04,-272.75,-272.75,-52,552,-949,22.5,0.4,-45.2,22.6,0.4,-44.0,5.73,2.43,-36.9,28.1
2013-02-06 00:12:00,0.0,1.9215,0.0009,404.36,0.36,-1.0,0.0,138.09,29.21,24.65,36.42,0.04,-272.75,-272.75,-52,552,-949,22.5,0.4,-45.2,22.6,0.5,-43.8,5.73,2.40,-36.9,28.2
2013-02-06 00:13:00,0.0,1.9218,0.0010,404.36,0.32,-1.0,0.0,138.09,29.21,24.65,36.42,0.04,-272.75,-272.75,-52,552,-949,22.4,0.4,-44.7,22.6,0.5,-43.5,5.73,2.39,-37.0,28.1
2013-02-06 00:14:00,0.0,1.9217,0.0011,404.30,0.39,-1.0,0.0,138.09,29.21,24.65,36.42,0.04,-272.75,-272.75,-52,552,-949,22.4,0.4,-44.6,22.6,0.5,-43.5,5.73,2.38,-37.0,28.1
2013-02-06 00:15:00,0.0,1.9216,0.0010,404.30,0.29,-1.0,0.0,138.09,29.21,24.65,36.42,0.04,-272.74,-272.75,-53,552,-949,22.5,0.4,-44.7,22.6,0.5,-43.3,5.73,2.40,-37.0,28.1
2013-02-06 00:16:00,0.0,1.9218,0.0009,404.32,0.31,-1.0,0.0,138.09,29.21,24.65,36.42,0.04,-272.75,-272.75,-52,552,-949,22.5,0.4,-44.6,22.6,0.5,-42.9,5.73,2.42,-37.0,28.2
2013-02-06 00:17:00,0.0,1.9218,0.0012,404.38,0.31,-1.0,0.0,138.09,29.22,24.65,36.42,0.04,-272.75,-272.75,-52,552,-949,22.5,0.4,-44.5,22.6,0.5,-42.9,5.73,2.44,-37.0,28.2
2013-02-06 00:18:00,0.0,1.9221,0.0010,404.33,0.33,-1.0,0.0,138.09,29.22,24.65,36.42,0.04,-272.75,-272.75,-52,552,-949,22.5,0.4,-44.6,22.6,0.5,-43.2,5.73,2.45,-37.0,28.2
2013-02-06 00:19:00,0.0,1.9226,0.0008,404.24,0.27,-1.0,0.0,138.09,29.22,24.65,36.42,0.04,-272.75,-272.75,-52,552,-949,22.5,0.4,-44.7,22.6,0.5,-43.5,5.73,2.44,-37.0,28.1
2013-02-06 00:20:00,0.0,1.9224,0.0011,404.36,0.31,-1.0,0.0,138.09,29.22,24.65,36.41,0.04,-272.76,-272.76,-52,552,-949,22.5,0.4,-45.2,22.6,0.5,-43.5,5.73,2.42,-37.0,28.1
2013-02-06 00:21:00,0.0,1.9218,0.0009,404.33,0.36,-1.0,0.0,138.09,29.22,24.65,36.42,0.04,-272.75,-272.75,-52,552,-949,22.5,0.4,-45.2,22.6,0.4,-44.0,5.73,2.40,-37.0,28.2
2013-02-06 00:22:00,0.0,1.9221,0.0012,404.26,0.31,-1.0,0.0,138.09,29.22,24.65,36.42,0.04,-272.75,-272.75,-52,552,-949,22.5,0.4,-45.2,22.6,0.4,-44.1,5.73,2.38,-37.0,28.1
2013-02-06 00:23:00,0.0,1.9226,0.0011,404.50,0.29,-1.0,0.0,138.09,29.22,24.65,36.40,0.04,-272.75,-272.75,-52,552,-949,22.4,0.4,-45.8,22.6,0.4,-44.0,5.73,2.38,-37.0,28.2
2013-02-06 00:24:00,0.0,1.9222,0.0009,404.36,0.33,-1.0,0.0,138.09,29.22,24.65,36.42,0.04,-272.75,-272.75,-52,552,-949,22.5,0.4,-45.9,22.6,0.4,-44.0,5.73,2.40,-37.0,28.1
2013-02-06 00:25:00,0.0,1.9220,0.0010,404.33,0.30,-1.0,0.0,138.09,29.22,24.65,36.42,0.04,-272.75,-272.75,-52,552,-949,22.4,0.4,-45.2,22.6,0.4,-44.1,5.73,2.43,-37.0,28.2
2013-02-06 00:26:00,0.0,1.9214,0.0009,404.24,0.30,-1.0,0.0,138.09,29.22,24.65,36.42,0.04,-272.75,-272.75,-52,552,-949,22.4,0.4,-45.4,22.6,0.4,-44.1,5.73,2.45,-37.0,28.2
2013-02-06 00:27:00,0.0,1.9214,0.0011,404.40,0.36,-1.0,0.0,138.09,29.22,24.65,36.42,0.04,-272.75,-272.75,-52,552,-949,22.5,0.4,-45.3,22.6,0.4,-44.1,5.73,2.45,-37.0,28.2
2013-02-06 00:28:00,0.0,1.9218,0.0010,404.49,0.33,-1.0,0.0,138.09,29.23,24.65,36.42,0.04,-272.75,-272.76,-52,552,-949,22.5,0.4,-45.0,22.6,0.5,-43.8,5.73,2.43,-37.0,28.2
2013-02-06 00:29:00,0.0,1.9221,0.0011,404.28,0.32,-1.0,0.0,138.09,29.23,24.65,36.42,0.04,-272.75,-272.75,-52,552,-949,22.5,0.4,-44.6,22.6,0.5,-43.4,5.73,2.42,-37.0,28.2
2013-02-06 00:30:00,0.0,1.9220,0.0010,404.27,0.33,-1.0,0.0,138.09,29.23,24.65,36.42,0.04,-272.75,-272.75,-52,552,-949,22.5,0.4,-44.6,22.6,0.5,-43.2,5.73,2.39,-37.0,28.2
2013-02-06 00:31:00,0.0,1.9225,0.0009,404.38,0.31,-1.0,0.0,138.09,29.23,24.65,36.42,0.04,-272.75,-272.75,-52,552,-949,22.5,0.5,-43.9,22.7,0.5,-42.8,5.73,2.38,-37.0,28.2
2013-02-06 00:32:00,0.0,1.9221,0.0009,404.48,0.32,-1.0,0.0,138.09,29.23,24.65,36.41,0.04,-272.75,-272.75,-52,552,-949,22.5,0.5,-43.9,22.6,0.5,-42.5,5.73,2.39,-37.0,28.2
2013-02-06 00:33:00,0.0,1.9221,0.0011,404.32,0.33,-1.0,0.0,138.09,29.23,24.65,36.42,0.04,-272.75,-272.75,-53,552,-949,22.5,0.5,-43.5,22.6,0.5,-42.3,5.73,2.41,-37.0,28.2
2013-02-06 00:34:00,0.0,1.9225,0.0011,404.41,0.31,-1.0,0.0,138.09,29.24,24.65,36.42,0.04,-272.75,-272.75,-52,552,-949,22.5,0.5,-43.2,22.7,0.6,-41.9,5.73,2.44,-37.0,28.2
2013-02-06 00:35:00,0.0,1.9221,0.0011,404.35,0.35,-1.0,0.0,138.09,29.24,24.65,36.42,0.04,-272.75,-272.75,-52,552,-949,22.5,0.5,-42.9,22.6,0.5,-42.0,5.73,2.45,-37.0,28.2
2013-02-06 00:36:00,0.0,1.9220,0.0009,404.43,0.28,-1.0,0.0,138.09,29.24,24.65,36.41,0.04,-272.75,-272.75,-52,552,-949,22.5,0.5,-43.0,22.6,0.6,-41.8,5.73,2.44,-37.0,28.2
2013-02-06 00:37:00,0.0,1.9221,0.0010,404.33,0.34,-1.0,0.0,138.09,29.24,24.65,36.42,0.04,-272.75,-272.75,-52,552,-949,22.5,0.5,-42.3,22.6,0.6,-41.5,5.73,2.43,-37.0,28.2
2013-02-06 00:38:00,0.0,1.9222,0.0012,404.38,0.29,-1.0,0.0,138.09,29.24,24.65,36.42,0.04,-272.75,-272.75,-53,552,-949,22.5,0.5,-42.5,22.6,0.6,-41.1,5.73,2.41,-37.0,28.2
2013-02-06 00:39:00,0.0,1.9220,0.0013,404.41,0.34,-1.0,0.0,138.09,29.24,24.65,36.41,0.04,-272.75,-272.75,-52,552,-949,22.5,0.5,-42.1,22.6,0.6,-41.0,5.73,2.39,-37.0,28.2
2013-02-06 00:40:00,0.0,1.9216,0.0012,404.34,0.37,-1.0,0.0,138.09,29.24,24.65,36.42,0.04,-272.75,-272.75,-52,552,-949,22.5,0.6,-42.0,22.6,0.6,-41.0,5.73,2.38,-37.0,28.2
2013-02-06 00:41:00,0.0,1.9220,0.0010,404.40,0.34,-1.0,0.0,138.09,29.25,24.65,36.42,0.04,-272.75,-272.75,-52,552,-949,22.5,0.6,-41.9,22.6,0.6,-40.7,5.73,2.39,-37.0,28.2
2013-02-06 00:42:00,0.0,1.9217,0.0012,404.38,0.29,-1.0,0.0,138.09,29.25,24.65,36.42,0.04,-272.75,-272.75,-52,552,-949,22.5,0.6,-41.6,22.6,0.6,-40.6,5.73,2.42,-37.0,28.2
2013-02-06 00:43:00,0.0,1.9213,0.0010,404.37,0.34,-1.0,0.0,138.09,29.25,24.65,36.42,0.04,-272.75,-272.75,-52,552,-949,22.5,0.6,-41.5,22.6,0.6,-40.6,5.73,2.43,-36.9,28.2
2013-02-06 00:44:00,0.0,1.9220,0.0012,404.40,0.30,-1.0,0.0,138.09,29.25,24.65,36.42,0.04,-272.75,-272.75,-53,552,-949,22.5,0.6,-41.5,22.6,0.7,-40.3,5.73,2.45,-37.0,28.2
2013-02-06 00:45:00,0.0,1.9223,0.0011,404.39,0.37,-1.0,0.0,138.09,29.25,24.65,36.42,0.04,-272.75,-272.75,-52,552,-949,22.5,0.6,-41.5,22.6,0.7,-40.2,5.73,2.44,-37.0,28.2
2013-02-06 00:46:00,0.0,1.9221,0.0010,404.54,0.29,-1.0,0.0,138.09,29.25,24.65,36.41,0.04,-272.76,-272.75,-52,552,-949,22.5,0.6,-41.5,22.6,0.7,-40.3,5.73,2.43,-36.9,28.2
2013-02-06 00:47:00,0.0,1.9224,0.0009,404.34,0.33,-1.0,0.0,138.09,29.25,24.65,36.42,0.04,-272.75,-272.75,-52,552,-949,22.5,0.6,-41.5,22.6,0.7,-40.2,5.73,2.41,-36.9,28.2
2013-02-06 00:48:00,0.0,1.9219,0.0011,404.42,0.38,-1.0,0.0,138.09,29.25,24.65,36.42,0.04,-272.75,-272.75,-52,552,-949,22.5,0.6,-41.5,22.6,0.7,-40.2,5.73,2.40,-36.9,28.2
2013-02-06 00:49:00,0.0,1.9216,0.0012,404.45,0.32,-1.0,0.0,138.09,29.25,24.65,36.41,0.04,-272.75,-272.75,-52,552,-949,22.5,0.6,-41.5,22.6,0.6,-40.5,5.73,2.39,-36.9,28.2
2013-02-06 00:50:00,0.0,1.9216,0.0011,404.48,0.30,-1.0,0.0,138.09,29.25,24.65,36.41,0.04,-272.75,-272.75,-53,552,-949,22.5,0.6,-41.8,22.6,0.6,-40.7,5.73,2.39,-36.9,28.2
2013-02-06 00:51:00,0.0,1.9215,0.0010,404.45,0.34,-1.0,0.0,138.09,29.26,24.65,36.42,0.04,-272.75,-272.75,-52,552,-949,22.5,0.5,-42.2,22.7,0.6,-41.0,5.73,2.40,-36.9,28.2
2013-02-06 00:52:00,0.0,1.9216,0.0011,404.51,0.32,-1.0,0.0,138.09,29.26,24.65,36.42,0.04,-272.75,-272.75,-52,552,-949,22.5,0.5,-42.7,22.6,0.6,-41.7,5.73,2.41,-36.9,28.2
2013-02-06 00:53:00,0.0,1.9211,0.0010,404.37,0.36,-1.0,0.0,138.09,29.26,24.65,36.42,0.04,-272.75,-272.75,-52,552,-949,22.5,0.5,-43.2,22.6,0.5,-42.0,5.73,2.43,-36.9,28.2
2013-02-06 00:54:00,0.0,1.9218,0.0010,404.38,0.30,-1.0,0.0,138.09,29.26,24.65,36.42,0.04,-272.75,-272.75,-52,552,-949,22.5,0.5,-43.6,22.6,0.5,-42.5,5.73,2.45,-36.9,28.2
2013-02-06 00:55:00,0.0,1.9225,0.0010,404.46,0.32,-1.0,0.0,138.09,29.26,24.65,36.42,0.04,-272.75,-272.75,-52,552,-949,22.5,0.4,-44.2,22.6,0.5,-43.0,5.73,2.44,-36.8,28.2
2013-02-06 00:56:00,0.0,1.9221,0.0009,404.46,0.32,-1.0,0.0,138.09,29.26,24.65,36.42,0.04,-272.75,-272.75,-52,552,-949,22.5,0.4,-44.6,22.6,0.5,-43.3,5.73,2.43,-36.8,28.2
2013-02-06 00:57:00,0.0,1.9222,0.0009,404.59,0.32,-1.0,0.0,138.09,29.27,24.65,36.41,0.04,-272.75,-272.75,-52,552,-949,22.5,0.4,-44.6,22.6,0.5,-43.5,5.73,2.41,-36.8,28.2
2013-02-06 00:58:00,0.0,1.9222,0.0011,404.57,0.35,-1.0,0.0,138.09,29.27,24.65,36.41,0.04,-272.75,-272.75,-52,552,-949,22.5,0.4,-45.1,22.6,0.5,-43.5,5.73,2.40,-36.8,28.2
2013-02-06 00:59:00,0.0,1.9222,0.0009,404.57,0.32,-1.0,0.0,138.09,29.27,24.65,36.42,0.04,-272.75,-272.75,-52,552,-949,22.5,0.4,-45.2,22.7,0.4,-43.9,5.73,2.38,-36.8,28.2
2013-02-06 01:00:00,0.0,1.9223,0.0012,404.49,0.30,-1.0,0.0,138.09,29.27,24.65,36.42,0.04,-272.75,-272.75,-52,552,-949,22.5,0.4,-45.2,22.6,0.4,-44.1,5.73,2.39,-36.8,28.2
2013-02-06 01:01:00,0.0,1.9219,0.0008,404.51,0.30,-1.0,0.0,138.09,29.27,24.65,36.42,0.04,-272.75,-272.75,-52,552,-949,22.5,0.4,-45.2,22.7,0.4,-44.0,5.73,2.40,-36.8,28.2
2013-02-06 01:02:00,0.0,1.9222,0.0011,404.43,0.34,-1.0,0.0,138.09,29.27,24.65,36.42,0.04,-272.75,-272.75,-52,552,-949,22.5,0.4,-45.3,22.6,0.4,-44.0,5.73,2.41,-36.8,28.2
2013-02-06 01:03:00,0.0,1.9223,0.0010,404.60,0.31,-1.0,0.0,138.09,29.27,24.65,36.41,0.04,-272.75,-272.75,-52,552,-949,22.5,0.4,-45.2,22.7,0.4,-44.0,5.73,2.43,-36.8,28.2
2013-02-06 01:04:00,0.0,1.9232,0.0012,404.64,0.30,-1.0,0.0,138.09,29.27,24.65,36.42,0.04,-272.75,-272.75,-52,552,-949,22.5,0.4,-45.3,22.7,0.4,-44.0,5.73,2.44,-36.8,28.2
2013-02-06 01:05:00,0.0,1.9231,0.0010,404.69,0.32,-1.0,0.0,138.09,29.28,24.65,36.41,0.04,-272.75,-272.75,-52,552,-949,22.5,0.4,-45.2,22.7,0.4,-44.1,5.73,2.44,-36.8,28.2
2013-02-06 01:06:00,0.0,1.9230,0.0010,404.68,0.34,-1.0,0.0,138.09,29.28,24.65,36.42,0.04,-272.75,-272.75,-52,552,-949,22.5,0.4,-45.1,22.7,0.4,-44.1,5.73,2.43,-36.8,28.2
2013-02-06 01:07:00,0.0,1.9231,0.0011,404.68,0.33,-1.0,0.0,138.09,29.28,24.65,36.42,0.04,-272.75,-272.76,-52,552,-949,22.6,0.4,-45.1,22.7,0.4,-43.9,5.73,2.41,-36.8,28.2
2013-02-06 01:08:00,0.0,1.9230,0.0012,404.73,0.30,-1.0,0.0,138.09,29.28,24.65,36.42,0.04,-272.75,-272.76,-52,552,-949,22.6,0.4,-45.2,22.7,0.4,-44.1,5.73,2.40,-36.8,28.3
2013-02-06 01:09:00,0.0,1.9222,0.0011,404.55,0.25,-1.0,0.0,138.09,29.28,24.65,36.42,0.04,-272.75,-272.75,-52,552,-949,22.6,0.4,-45.2,22.7,0.4,-43.9,5.73,2.39,-36.8,28.2
2013-02-06 01:10:00,0.0,1.9223,0.0011,404.60,0.36,-1.0,0.0,138.09,29.28,24.65,36.42,0.04,-272.75,-272.75,-53,552,-949,22.5,0.4,-44.9,22.7,0.5,-43.6,5.73,2.38,-36.8,28.2
2013-02-06 01:11:00,0.0,1.9225,0.0009,404.72,0.38,-1.0,0.0,138.09,29.29,24.65,36.41,0.04,-272.75,-272.76,-52,552,-949,22.6,0.4,-44.5,22.7,0.5,-43.6,5.73,2.40,-36.8,28.2
2013-02-06 01:12:00,0.0,1.9224,0.0010,404.71,0.30,-1.0,0.0,138.09,29.29,24.65,36.42,0.04,-272.75,-272.75,-52,552,-949,22.5,0.4,-44.6,22.7,0.5,-43.5,5.73,2.41,-36.8,28.2
2013-02-06 01:13:00,0.0,1.9231,0.0012,404.72,0.28,-1.0,0.0,138.09,29.29,24.65,36.42,0.04,-272.75,-272.75,-52,552,-949,22.5,0.4,-44.5,22.7,0.5,-43.5,5.73,2.43,-36.8,28.2
2013-02-06 01:14:00,0.0,1.9231,0.0010,404.62,0.28,-1.0,0.0,138.09,29.29,24.65,36.42,0.04,-272.76,-272.75,-52,552,-949,22.6,0.4,-44.6,22.7,0.5,-43.5,5.73,2.44,-36.8,28.2
2013-02-06 01:15:00,0.0,1.9227,0.0011,404.65,0.31,-1.0,0.0,138.09,29.29,24.65,36.43,0.04,-272.75,-272.75,-52,552,-949,22.6,0.4,-44.5,22.7,0.5,-43.4,5.73,2.44,-36.8,28.2
2013-02-06 01:16:00,0.0,1.9234,0.0009,404.66,0.38,-1.0,0.0,138.09,29.29,24.65,36.42,0.04,-272.75,-272.75,-52,552,-949,22.6,0.4,-44.8,22.7,0.5,-43.5,5.73,2.43,-36.8,28.2
2013-02-06 01:17:00,0.0,1.9231,0.0010,404.67,0.32,-1.0,0.0,138.09,29.29,24.65,36.43,0.04,-272.75,-272.75,-52,552,-949,22.6,0.4,-45.1,22.7,0.5,-43.6,5.73,2.41,-36.8,28.2
2013-02-06 01:18:00,0.0,1.9225,0.0010,404.79,0.33,-1.0,0.0,138.09,29.29,24.65,36.41,0.04,-272.75,-272.75,-52,552,-949,22.6,0.4,-45.2,22.7,0.4,-44.0,5.73,2.40,-36.9,28.2
2013-02-06 01:19:00,0.0,1.9218,0.0009,404.72,0.28,-1.0,0.0,138.09,29.29,24.65,36.42,0.04,-272.75,-272.75,-52,552,-949,22.6,0.4,-45.3,22.7,0.4,-44.1,5.73,2.39,-36.9,28.2
2013-02-06 01:20:00,0.0,1.9222,0.0012,404.89,0.33,-1.0,0.0,138.09,29.30,24.65,36.42,0.04,-272.75,-272.75,-52,552,-949,22.6,0.4,-45.2,22.7,0.4,-44.0,5.73,2.38,-36.9,28.2
2013-02-06 01:21:00,0.0,1.9222,0.0009,404.83,0.37,-1.0,0.0,138.09,29.30,24.65,36.42,0.04,-272.75,-272.75,-52,552,-949,22.6,0.4,-45.2,22.7,0.4,-43.9,5.73,2.39,-36.9,28.2
2013-02-06 01:22:00,0.0,1.9221,0.0009,404.71,0.36,-1.0,0.0,138.09,29.30,24.65,36.42,0.04,-272.75,-272.75,-52,552,-949,22.6,0.4,-45.3,22.7,0.4,-44.1,5.73,2.40,-36.9,28.2
2013-02-06 01:23:00,0.0,1.9222,0.0010,404.77,0.32,-1.0,0.0,138.09,29.30,24.65,36.42,0.04,-272.75,-272.75,-53,552,-949,22.6,0.4,-45.2,22.7,0.4,-44.0,5.73,2.42,-36.9,28.2
2013-02-06 01:24:00,0.0,1.9221,0.0010,404.90,0.27,-1.0,0.0,138.09,29.30,24.65,36.42,0.04,-272.75,-272.75,-52,552,-949,22.6,0.4,-45.2,22.7,0.4,-44.1,5.73,2.44,-36.9,28.2
2013-02-06 01:25:00,0.0,1.9216,0.0011,404.77,0.32,-1.0,0.0,138.09,29.30,24.65,36.42,0.04,-272.75,-272.75,-52,552,-949,22.6,0.4,-45.4,22.7,0.4,-43.9,5.73,2.44,-36.9,28.2
2013-02-06 01:26:00,0.0,1.9219,0.0011,404.95,0.37,-1.0,0.0,138.09,29.31,24.65,36.42,0.04,-272.75,-272.75,-52,552,-949,22.6,0.4,-45.8,22.7,0.4,-44.2,5.73,2.44,-36.9,28.2
2013-02-06 01:27:00,0.0,1.9221,0.0010,404.86,0.36,-1.0,0.0,138.09,29.31,24.65,36.41,0.04,-272.75,-272.75,-52,553,-949,22.6,0.4,-45.9,22.7,0.4,-44.4,5.73,2.42,-36.9,28.3
2013-02-06 01:28:00,0.0,1.9224,0.0010,404.71,0.31,-1.0,0.0,138.09,29.31,24.65,36.42,0.04,-272.75,-272.75,-52,552,-949,22.6,0.4,-45.6,22.7,0.4,-44.0,5.73,2.40,-36.9,28.2
2013-02-06 01:29:00,0.0,1.9230,0.0009,404.63,0.27,-1.0,0.0,138.09,29.31,24.65,36.42,0.04,-272.75,-272.75,-53,552,-949,22.6,0.4,-45.1,22.7,0.4,-44.0,5.73,2.39,-36.9,28.2
2013-02-06 01:30:00,0.0,1.9225,0.0009,404.79,0.36,-1.0,0.0,138.09,29.31,24.65,36.42,0.04,-272.75,-272.75,-52,552,-949,22.6,0.4,-45.1,22.7,0.4,-44.1,5.73,2.39,-36.9,28.3
2013-02-06 01:31:00,0.0,1.9222,0.0010,404.76,0.33,-1.0,0.0,138.09,29.32,24.65,36.42,0.04,-272.75,-272.75,-52,552,-949,22.6,0.4,-45.3,22.7,0.4,-44.0,5.73,2.39,-36.9,28.3
2013-02-06 01:32:00,0.0,1.9221,0.0011,404.90,0.33,-1.0,0.0,138.09,29.32,24.65,36.42,0.04,-272.75,-272.75,-52,552,-949,22.6,0.4,-45.3,22.7,0.4,-44.0,5.73,2.41,-36.9,28.3
2013-02-06 01:33:00,0.0,1.9219,0.0010,404.81,0.34,-1.0,0.0,138.09,29.32,24.65,36.42,0.04,-272.75,-272.75,-52,552,-949,22.6,0.4,-45.3,22.7,0.5,-43.7,5.73,2.42,-36.9,28.3
2013-02-06 01:34:00,0.0,1.9224,0.0010,404.75,0.31,-1.0,0.0,138.09,29.32,24.65,36.42,0.04,-272.75,-272.75,-52,553,-949,22.6,0.4,-45.2,22.7,0.5,-43.4,5.73,2.43,-36.9,28.2
2013-02-06 01:35:00,0.0,1.9239,0.0010,404.87,0.31,-1.0,0.0,138.09,29.32,24.65,36.42,0.04,-272.75,-272.75,-53,552,-949,22.6,0.4,-45.2,22.7,0.5,-43.6,5.73,2.44,-36.9,28.2
2013-02-06 01:36:00,0.0,1.9236,0.0009,404.74,0.31,-1.0,0.0,138.09,29.32,24.65,36.42,0.04,-272.75,-272.75,-53,553,-949,22.6,0.4,-45.2,22.7,0.4,-43.9,5.73,2.44,-37.0,28.2
2013-02-06 01:37:00,0.0,1.9228,0.0013,404.85,0.33,-1.0,0.0,138.09,29.32,24.65,36.42,0.04,-272.75,-272.75,-52,552,-949,22.6,0.4,-45.1,22.7,0.4,-43.9,5.73,2.43,-37.0,28.2
2013-02-06 01:38:00,0.0,1.9228,0.0012,404.87,0.28,-1.0,0.0,138.09,29.32,24.65,36.42,0.04,-272.75,-272.75,-52,553,-949,22.6,0.4,-45.1,22.7,0.5,-43.4,5.73,2.41,-37.0,28.2
2013-02-06 01:39:00,0.0,1.9230,0.0009,404.85,0.32,-1.0,0.0,138.09,29.33,24.65,36.42,0.04,-272.75,-272.75,-52,552,-949,22.6,0.4,-44.7,22.7,0.5,-43.4,5.73,2.39,-37.0,28.2
2013-02-06 01:40:00,0.0,1.9228,0.0010,404.78,0.36,-1.0,0.0,138.09,29.33,24.65,36.43,0.04,-272.75,-272.75,-52,553,-949,22.6,0.4,-44.5,22.7,0.5,-43.2,5.73,2.38,-37.0,28.2
2013-02-06 01:41:00,0.0,1.9222,0.0010,404.85,0.28,-1.0,0.0,138.09,29.33,24.65,36.42,0.04,-272.75,-272.75,-52,553,-949,22.6,0.4,-44.0,22.7,0.5,-42.9,5.73,2.39,-37.0,28.3
2013-02-06 01:42:00,0.0,1.9217,0.0009,404.96,0.38,-1.0,0.0,138.09,29.33,24.65,36.42,0.04,-272.75,-272.75,-53,553,-949,22.6,0.4,-43.9,22.7,0.5,-42.4,5.73,2.40,-37.0,28.3
2013-02-06 01:43:00,0.0,1.9224,0.0009,404.94,0.31,-1.0,0.0,138.09,29.33,24.65,36.41,0.04,-272.75,-272.75,-53,552,-949,22.6,0.5,-43.4,22.7,0.5,-42.3,5.73,2.42,-37.0,28.3
2013-02-06 01:44:00,0.0,1.9229,0.0010,404.83,0.33,-1.0,0.0,138.09,29.33,24.65,36.43,0.04,-272.75,-272.75,-52,552,-949,22.6,0.5,-43.3,22.7,0.5,-42.0,5.73,2.43,-37.0,28.3
2013-02-06 01:45:00,0.0,1.9230,0.0010,404.71,0.29,-1.0,0.0,138.09,29.33,24.65,36.42,0.04,-272.75,-272.75,-52,553,-949,22.6,0.5,-42.9,22.7,0.6,-41.9,5.73,2.43,-37.0,28.3
2013-02-06 01:46:00,0.0,1.9230,0.0010,404.63,0.34,-1.0,0.0,138.09,29.33,24.65,36.42,0.04,-272.75,-272.74,-52,552,-949,22.6,0.5,-42.9,22.7,0.6,-41.9,5.73,2.44,-37.0,28.3
2013-02-06 01:47:00,0.0,1.9230,0.0013,404.72,0.34,-1.0,0.0,138.09,29.34,24.65,36.42,0.04,-272.75,-272.75,-52,552,-949,22.6,0.5,-42.9,22.7,0.5,-42.0,5.73,2.43,-37.0,28.3
2013-02-06 01:48:00,0.0,1.9229,0.0009,404.63,0.35,-1.0,0.0,138.09,29.34,24.65,36.42,0.04,-272.75,-272.75,-53,552,-949,22.6,0.5,-42.8,22.7,0.6,-41.9,5.73,2.42,-37.0,28.3
2013-02-06 01:49:00,0.0,1.9228,0.0011,404.62,0.32,-1.0,0.0,138.09,29.34,24.65,36.42,0.04,-272.75,-272.75,-53,553,-949,22.6,0.5,-42.8,22.7,0.5,-42.0,5.73,2.40,-37.0,28.3
2013-02-06 01:50:00,0.0,1.9230,0.0010,404.62,0.32,-1.0,0.0,138.09,29.34,24.65,36.42,0.04,-272.75,-272.75,-53,553,-949,22.6,0.5,-42.9,22.7,0.5,-42.0,5.73,2.39,-37.0,28.3
2013-02-06 01:51:00,0.0,1.9230,0.0010,404.66,0.30,-1.0,0.0,138.09,29.34,24.65,36.42,0.04,-272.75,-272.75,-52,553,-949,22.6,0.5,-42.9,22.7,0.6,-41.9,5.73,2.38,-37.0,28.3
2013-02-06 01:52:00,0.0,1.9232,0.0013,404.59,0.38,-1.0,0.0,138.09,29.34,24.65,36.42,0.04,-272.75,-272.75,-52,553,-949,22.6,0.5,-42.9,22.7,0.5,-41.9,5.73,2.39,-37.0,28.3
2013-02-06 01:53:00,0.0,1.9237,0.0012,404.60,0.30,-1.0,0.0,138.09,29.34,24.65,36.43,0.04,-272.75,-272.75,-52,553,-949,22.6,0.5,-42.8,22.7,0.5,-42.0,5.73,2.40,-37.0,28.3
2013-02-06 01:54:00,0.0,1.9248,0.0012,404.69,0.30,-1.0,0.0,138.09,29.34,24.65,36.42,0.04,-272.75,-272.75,-53,553,-949,22.6,0.5,-42.9,22.7,0.5,-42.0,5.73,2.41,-36.9,28.3
2013-02-06 01:55:00,0.0,1.9254,0.0010,404.79,0.32,-1.0,0.0,138.09,29.34,24.65,36.42,0.04,-272.76,-272.75,-53,553,-949,22.6,0.5,-43.3,22.7,0.5,-42.1,5.73,2.43,-36.9,28.3
2013-02-06 01:56:00,0.0,1.9255,0.0010,404.70,0.30,-1.0,0.0,138.09,29.35,24.65,36.42,0.04,-272.75,-272.75,-53,553,-949,22.6,0.4,-43.9,22.7,0.5,-42.4,5.73,2.44,-36.9,28.3
2013-02-06 01:57:00,0.0,1.9252,0.0011,404.63,0.27,-1.0,0.0,138.09,29.35,24.65,36.42,0.04,-272.75,-272.75,-53,553,-948,22.6,0.8,-38.6,22.7,0.9,-37.9,5.73,2.44,-36.9,28.3
2013-02-06 01:58:00,0.0,1.9252,0.0011,404.59,0.33,-1.0,0.0,138.09,29.35,24.65,36.43,0.04,-272.75,-272.76,-52,553,-949,22.6,0.5,-42.9,22.7,0.6,-41.6,5.73,2.43,-36.9,28.3
2013-02-06 01:59:00,0.0,1.9248,0.0008,404.72,0.30,-1.0,0.0,138.09,29.35,24.65,36.42,0.04,-272.76,-272.75,-52,553,-949,22.6,0.4,-44.2,22.7,0.5,-43.1,5.73,2.42,-36.9,28.3
2013-02-06 02:00:00,0.0,1.9247,0.0009,404.78,0.29,-1.0,0.0,138.09,29.35,24.65,36.42,0.04,-272.75,-272.75,-53,553,-949,22.6,0.4,-44.6,22.7,0.5,-43.4,5.73,2.40,-36.9,28.3
2013-02-06 02:01:00,0.0,1.9254,0.0010,404.69,0.34,-1.0,0.0,138.09,29.35,24.65,36.42,0.04,-272.75,-272.75,-53,553,-949,22.6,0.4,-45.1,22.7,0.5,-43.5,5.73,2.39,-36.9,28.3
2013-02-06 02:02:00,0.0,1.9255,0.0010,404.72,0.35,-1.0,0.0,138.09,29.35,24.65,36.42,0.04,-272.75,-272.75,-53,553,-949,22.6,0.4,-45.2,22.7,0.4,-44.0,5.73,2.38,-36.9,28.3
2013-02-06 02:03:00,0.0,1.9254,0.0009,404.72,0.37,-1.0,0.0,138.09,29.35,24.65,36.42,0.04,-272.75,-272.75,-53,553,-949,22.6,0.4,-45.1,22.7,0.4,-43.9,5.73,2.39,-36.9,28.3
2013-02-06 02:04:00,0.0,1.9257,0.0010,404.77,0.36,-1.0,0.0,138.09,29.36,24.65,36.42,0.04,-272.75,-272.75,-53,553,-949,22.6,0.4,-45.1,22.7,0.5,-43.5,5.73,2.40,-36.9,28.3
2013-02-06 02:05:00,0.0,1.9256,0.0011,404.66,0.32,-1.0,0.0,138.09,29.36,24.65,36.43,0.04,-272.75,-272.75,-53,553,-949,22.6,0.4,-44.5,22.8,0.5,-43.4,5.73,2.42,-36.8,28.3
2013-02-06 02:06:00,0.0,1.9266,0.0011,404.80,0.29,-1.0,0.0,138.09,29.36,24.65,36.42,0.04,-272.75,-272.75,-52,553,-949,22.6,0.4,-44.6,22.8,0.5,-43.4,5.73,2.43,-36.9,28.3
2013-02-06 02:07:00,0.0,1.9265,0.0010,404.68,0.38,-1.0,0.0,138.09,29.36,24.65,36.42,0.04,-272.75,-272.75,-53,553,-949,22.6,0.4,-44.6,22.8,0.5,-43.5,5.73,2.44,-36.9,28.3
2013-02-06 02:08:00,0.0,1.9264,0.0011,404.69,0.34,-1.0,0.0,138.09,29.36,24.65,36.42,0.04,-272.75,-272.75,-53,553,-949,22.6,0.4,-44.6,22.8,0.5,-42.8,5.73,2.43,-36.8,28.3
2013-02-06 02:09:00,0.0,1.9263,0.0011,404.66,0.32,-1.0,0.0,138.09,29.36,24.65,36.42,0.04,-272.75,-272.75,-53,553,-949,22.6,0.4,-44.1,22.8,0.5,-42.9,5.73,2.43,-36.8,28.3
2013-02-06 02:10:00,0.0,1.9263,0.0010,404.49,0.33,-1.0,0.0,138.09,29.36,24.65,36.42,0.04,-272.75,-272.75,-53,553,-949,22.6,0.4,-43.9,22.8,0.5,-42.7,5.73,2.42,-36.9,28.3
2013-02-06 02:11:00,0.0,1.9256,0.0010,404.59,0.34,-1.0,0.0,138.09,29.36,24.65,36.42,0.04,-272.76,-272.75,-53,553,-949,22.6,0.4,-43.9,22.8,0.5,-43.0,5.73,2.41,-36.9,28.3
2013-02-06 02:12:00,0.0,1.9253,0.0011,404.56,0.32,-1.0,0.0,138.09,29.37,24.65,36.42,0.04,-272.75,-272.75,-53,553,-949,22.6,0.4,-44.0,22.8,0.5,-42.4,5.73,2.39,-36.8,28.3
2013-02-06 02:13:00,0.0,1.9263,0.0011,404.66,0.30,-1.0,0.0,138.09,29.37,24.65,36.43,0.04,-272.75,-272.75,-52,553,-949,22.6,0.4,-44.0,22.8,0.5,-42.3,5.73,2.38,-36.8,28.3
2013-02-06 02:14:00,0.0,1.9269,0.0010,404.75,0.31,-1.0,0.0,138.09,29.37,24.65,36.42,0.04,-272.75,-272.75,-53,553,-949,22.6,0.5,-43.5,22.8,0.5,-42.4,5.73,2.39,-36.8,28.3
2013-02-06 02:15:00,0.0,1.9269,0.0010,404.75,0.34,-1.0,0.0,138.09,29.37,24.65,36.42,0.04,-272.75,-272.75,-53,553,-949,22.6,0.5,-43.4,22.8,0.5,-42.3,5.73,2.40,-36.8,28.4
2013-02-06 02:16:00,0.0,1.9276,0.0011,404.76,0.32,-1.0,0.0,138.09,29.38,24.65,36.42,0.04,-272.75,-272.75,-53,553,-949,22.6,0.5,-43.4,22.8,0.5,-42.3,5.73,2.40,-36.8,28.4
2013-02-06 02:17:00,0.0,1.9274,0.0011,404.76,0.32,-1.0,0.0,138.09,29.38,24.65,36.42,0.04,-272.75,-272.75,-53,553,-949,22.6,0.5,-43.3,22.8,0.5,-42.3,5.73,2.42,-36.8,28.4
2013-02-06 02:18:00,0.0,1.9272,0.0009,404.83,0.32,-1.0,0.0,138.09,29.38,24.65,36.41,0.04,-272.75,-272.75,-53,553,-949,22.6,0.5,-43.2,22.8,0.5,-42.4,5.73,2.42,-36.8,28.3